User: anonymous   Login
Location: Squamish
(49.7000°N, 123.1500°W)
Time: 09:36:53
(UTC-07:00)
Language:

NOAA 19 - Orbit

View from above orbital plane
View from above orbital plane
View from above satellite
View from above satellite

Ground track
Ground track

The orbit data is extracted from the following two-line orbital elements,

1 33591U 09005A   17202.20662841 +.00000087 +00000-0 +72282-4 0  9996
2 33591 099.0951 169.5200 0014009 172.2385 187.9005 14.12196004435191
Epoch (UTC): 21 July 2017 04:57:32
Eccentricity: 0.0014009
inclination: 99.0951°
perigee height: 842 km
apogee height: 862 km
right ascension of ascending node: 169.5200°
argument of perigee: 172.2385°
revolutions per day: 14.12196004
mean anomaly at epoch: 187.9005°
orbit number at epoch: 43519

The dashed part of the orbit path shows where the satellite is in the earth's shadow,  

DLR